| time (UTC) | temp F | wind direction | speed knots | gust knots | rain 1hr in | rain 24hr in | rain mn in | humidity % | barometer mb |
| 20260901012020 | 86 | 0 | 0.0 | 0.0 | 0.00 | 0.00 | 0.00 | 65 | 1017.4 |
| 20260901011541 | 86 | 0 | 0.0 | 0.0 | 0.00 | 0.00 | 0.00 | 65 | 1017.3 |
| 20260901011020 | 87 | 0 | 0.0 | 0.0 | 0.00 | 0.00 | 0.00 | 64 | 1017.2 |
| 20260901010518 | 87 | 0 | 0.0 | 0.0 | 0.00 | 0.00 | 0.00 | 64 | 1017.2 |
| 20260901010041 | 87 | 0 | 0.0 | 0.0 | 0.00 | 0.00 | 0.00 | 63 | 1017.3 |
| 20260901005518 | 88 | 0 | 0.0 | 0.0 | 0.00 | 0.00 | 0.00 | 63 | 1017.2 |
| 20260901005022 | 88 | 0 | 0.0 | 0.0 | 0.00 | 0.00 | 0.00 | 62 | 1017.1 |
| 20260901004545 | 88 | 0 | 0.0 | 0.0 | 0.00 | 0.00 | 0.00 | 61 | 1016.9 |
| 20260901004018 | 89 | 0 | 0.0 | 0.0 | 0.00 | 0.00 | 0.00 | 60 | 1016.9 |
| 20260901003520 | 89 | 0 | 0.0 | 0.0 | 0.00 | 0.00 | 0.00 | 59 | 1017.1 |
| 20260901003044 | 90 | 0 | 0.0 | 0.0 | 0.00 | 0.00 | 0.00 | 59 | 1017.0 |
| 20260901002522 | 90 | 0 | 0.0 | 0.0 | 0.00 | 0.00 | 0.00 | 59 | 1017.0 |
| 20260901002024 | 90 | 0 | 0.0 | 0.9 | 0.00 | 0.00 | 0.00 | 57 | 1017.1 |
| 20260901001542 | 91 | 0 | 0.0 | 0.9 | 0.00 | 0.00 | 0.00 | 57 | 1016.8 |
| 20260901001021 | 91 | 0 | 0.0 | 0.9 | 0.00 | 0.00 | 0.00 | 56 | 1016.9 |
| 20260901000523 | 91 | 0 | 0.0 | 0.9 | 0.00 | 0.00 | 0.00 | 56 | 1017.0 |
| 20260901000044 | 91 | 0 | 0.0 | 0.9 | 0.00 | 0.00 | 0.00 | 56 | 1016.8 |
| 20260831235520 | 91 | 0 | 0.0 | 1.7 | 0.00 | 0.00 | 0.00 | 56 | 1016.8 |
| 20260831235025 | 91 | 0 | 0.0 | 1.7 | 0.00 | 0.00 | 0.00 | 56 | 1016.8 |
| 20260831234543 | 91 | 0 | 0.0 | 1.7 | 0.00 | 0.00 | 0.00 | 56 | 1016.8 |
| 20260831234026 | 91 | 0 | 0.0 | 0.9 | 0.00 | 0.00 | 0.00 | 56 | 1016.9 |
| 20260831233524 | 91 | 0 | 0.0 | 0.9 | 0.00 | 0.00 | 0.00 | 58 | 1016.8 |
| 20260831233042 | 91 | 0 | 0.0 | 0.0 | 0.00 | 0.00 | 0.00 | 60 | 1016.7 |
| 20260831232519 | 91 | 0 | 0.0 | 0.0 | 0.00 | 0.00 | 0.00 | 60 | 1016.7 |
| 20260831232020 | 91 | 0 | 0.0 | 0.0 | 0.00 | 0.00 | 0.00 | 60 | 1016.7 |
| 20260831231541 | 91 | 0 | 0.0 | 0.9 | 0.00 | 0.00 | 0.00 | 60 | 1016.9 |
| 20260831231020 | 91 | 0 | 0.0 | 0.9 | 0.00 | 0.00 | 0.00 | 59 | 1016.8 |
| 20260831230519 | 91 | 0 | 0.0 | 0.0 | 0.00 | 0.00 | 0.00 | 57 | 1016.8 |
| 20260831230059 | 92 | 0 | 0.0 | 0.0 | 0.00 | 0.00 | 0.00 | 57 | 1016.9 |
| 20260831225521 | 93 | 0 | 0.0 | 0.0 | 0.00 | 0.00 | 0.00 | 56 | 1016.8 |
| 20260831225030 | 93 | 0 | 0.0 | 0.0 | 0.00 | 0.00 | 0.00 | 54 | 1017.0 |
| 20260831224542 | 93 | 0 | 0.0 | 0.0 | 0.00 | 0.00 | 0.00 | 54 | 1016.9 |
| 20260831224020 | 93 | 0 | 0.0 | 0.9 | 0.00 | 0.00 | 0.00 | 52 | 1017.0 |
| 20260831223520 | 93 | 0 | 0.0 | 2.6 | 0.00 | 0.00 | 0.00 | 52 | 1017.1 |
| 20260831223039 | 94 | 30 | 0.0 | 2.6 | 0.00 | 0.00 | 0.00 | 52 | 1017.1 |
| 20260831222521 | 94 | 0 | 0.0 | 2.6 | 0.00 | 0.00 | 0.00 | 51 | 1017.0 |
| 20260831222026 | 94 | 0 | 0.0 | 2.6 | 0.00 | 0.00 | 0.00 | 50 | 1017.0 |
| 20260831221548 | 95 | 0 | 0.0 | 3.5 | 0.00 | 0.00 | 0.00 | 50 | 1017.1 |
| 20260831221024 | 95 | 0 | 0.0 | 3.5 | 0.00 | 0.00 | 0.00 | 50 | 1017.0 |
| 20260831220522 | 95 | 0 | 0.9 | 3.5 | 0.00 | 0.00 | 0.00 | 50 | 1017.1 |
| 20260831220046 | 95 | 0 | 0.9 | 3.5 | 0.00 | 0.00 | 0.00 | 50 | 1017.0 |
| 20260831215522 | 95 | 49 | 0.0 | 1.7 | 0.00 | 0.00 | 0.00 | 51 | 1017.0 |
| 20260831215021 | 94 | 54 | 0.0 | 0.9 | 0.00 | 0.00 | 0.00 | 51 | 1017.0 |
| 20260831214546 | 94 | 54 | 0.0 | 2.6 | 0.00 | 0.00 | 0.00 | 51 | 1017.1 |
| 20260831214023 | 94 | 0 | 0.0 | 2.6 | 0.00 | 0.00 | 0.00 | 50 | 1017.1 |
| 20260831213520 | 94 | 55 | 0.0 | 5.2 | 0.00 | 0.00 | 0.00 | 51 | 1017.3 |
| 20260831213044 | 94 | 0 | 0.0 | 5.2 | 0.00 | 0.00 | 0.00 | 51 | 1017.2 |
| 20260831212527 | 95 | 360 | 0.9 | 5.2 | 0.00 | 0.00 | 0.00 | 49 | 1017.4 |
| 20260831212025 | 95 | 0 | 0.9 | 6.1 | 0.00 | 0.00 | 0.00 | 50 | 1017.4 |
| 20260831211550 | 95 | 29 | 1.7 | 7.0 | 0.00 | 0.00 | 0.00 | 49 | 1017.4 |
| 20260831211021 | 96 | 160 | 2.6 | 7.0 | 0.00 | 0.00 | 0.00 | 49 | 1017.3 |
| 20260831210522 | 96 | 0 | 1.7 | 5.2 | 0.00 | 0.00 | 0.00 | 49 | 1017.4 |
| 20260831210042 | 96 | 0 | 0.9 | 2.6 | 0.00 | 0.00 | 0.00 | 50 | 1017.4 |
| 20260831205520 | 95 | 0 | 0.0 | 2.6 | 0.00 | 0.00 | 0.00 | 50 | 1017.3 |
| 20260831205020 | 95 | 327 | 0.9 | 2.6 | 0.00 | 0.00 | 0.00 | 48 | 1017.3 |
| 20260831204542 | 95 | 0 | 0.0 | 2.6 | 0.00 | 0.00 | 0.00 | 50 | 1017.5 |
| 20260831204026 | 96 | 0 | 0.0 | 2.6 | 0.00 | 0.00 | 0.00 | 49 | 1017.5 |
| 20260831203524 | 96 | 0 | 0.0 | 4.3 | 0.00 | 0.00 | 0.00 | 49 | 1017.6 |
| 20260831203044 | 96 | 53 | 0.0 | 4.3 | 0.00 | 0.00 | 0.00 | 48 | 1017.6 |
| 20260831202522 | 97 | 42 | 0.0 | 4.3 | 0.00 | 0.00 | 0.00 | 48 | 1017.6 |
| 20260831202023 | 97 | 39 | 0.0 | 5.2 | 0.00 | 0.00 | 0.00 | 49 | 1017.7 |
| 20260831201541 | 97 | 261 | 1.7 | 5.2 | 0.00 | 0.00 | 0.00 | 52 | 1017.6 |
| 20260831201021 | 96 | 244 | 0.0 | 4.3 | 0.00 | 0.00 | 0.00 | 49 | 1017.7 |
| 20260831200521 | 96 | 352 | 1.7 | 4.3 | 0.00 | 0.00 | 0.00 | 49 | 1017.8 |
| 20260831200041 | 96 | 325 | 0.0 | 4.3 | 0.00 | 0.00 | 0.00 | 50 | 1017.9 |
| 20260831195519 | 96 | 0 | 0.0 | 4.3 | 0.00 | 0.00 | 0.00 | 48 | 1017.9 |
| 20260831195019 | 97 | 0 | 0.9 | 4.3 | 0.00 | 0.00 | 0.00 | 48 | 1018.1 |
| 20260831194618 | 97 | 0 | 0.0 | 3.5 | 0.00 | 0.00 | 0.00 | 48 | 1018.0 |
| 20260831194027 | 97 | 235 | 0.0 | 3.5 | 0.00 | 0.00 | 0.00 | 51 | 1018.1 |
| 20260831193520 | 97 | 0 | 0.9 | 3.5 | 0.00 | 0.00 | 0.00 | 48 | 1018.2 |
| 20260831193043 | 97 | 0 | 0.0 | 3.5 | 0.00 | 0.00 | 0.00 | 49 | 1018.3 |
| 20260831192519 | 97 | 88 | 0.9 | 3.5 | 0.00 | 0.00 | 0.00 | 49 | 1018.2 |
| 20260831192019 | 96 | 155 | 0.9 | 3.5 | 0.00 | 0.00 | 0.00 | 52 | 1018.2 |
| 20260831191538 | 95 | 0 | 0.0 | 4.3 | 0.00 | 0.00 | 0.00 | 55 | 1018.4 |
| 20260831191020 | 95 | 0 | 0.9 | 4.3 | 0.00 | 0.00 | 0.00 | 51 | 1018.4 |
| 20260831190520 | 96 | 9 | 0.0 | 4.3 | 0.00 | 0.00 | 0.00 | 48 | 1018.5 |
| 20260831190041 | 96 | 0 | 0.0 | 3.5 | 0.00 | 0.00 | 0.00 | 48 | 1018.6 |
| 20260831185518 | 96 | 0 | 0.9 | 3.5 | 0.00 | 0.00 | 0.00 | 50 | 1018.7 |
| 20260831185019 | 96 | 127 | 0.0 | 5.2 | 0.00 | 0.00 | 0.00 | 52 | 1018.6 |
| 20260831184546 | 96 | 0 | 0.9 | 5.2 | 0.00 | 0.00 | 0.00 | 51 | 1018.8 |
| 20260831184021 | 96 | 78 | 0.0 | 3.5 | 0.00 | 0.00 | 0.00 | 53 | 1018.8 |
| 20260831183521 | 96 | 0 | 0.0 | 4.3 | 0.00 | 0.00 | 0.00 | 53 | 1018.9 |
| 20260831183046 | 96 | 0 | 0.0 | 5.2 | 0.00 | 0.00 | 0.00 | 60 | 1019.1 |
| 20260831182518 | 96 | 0 | 0.9 | 5.2 | 0.00 | 0.00 | 0.00 | 52 | 1019.0 |
| 20260831182021 | 96 | 71 | 0.9 | 4.3 | 0.00 | 0.00 | 0.00 | 56 | 1019.3 |
| 20260831181540 | 96 | 346 | 0.0 | 4.3 | 0.00 | 0.00 | 0.00 | 54 | 1019.3 |
| 20260831181020 | 96 | 168 | 0.9 | 4.3 | 0.00 | 0.00 | 0.00 | 58 | 1019.5 |
| 20260831180519 | 96 | 0 | 0.0 | 3.5 | 0.00 | 0.00 | 0.00 | 53 | 1019.6 |
| 20260831180041 | 96 | 0 | 0.0 | 3.5 | 0.00 | 0.00 | 0.00 | 53 | 1019.6 |
| 20260831175523 | 97 | 338 | 0.9 | 3.5 | 0.00 | 0.00 | 0.00 | 54 | 1019.6 |
| 20260831175024 | 97 | 183 | 0.9 | 3.5 | 0.00 | 0.00 | 0.00 | 55 | 1019.7 |
| 20260831174550 | 96 | 210 | 0.0 | 4.3 | 0.00 | 0.00 | 0.00 | 59 | 1019.7 |
| 20260831174023 | 95 | 197 | 1.7 | 4.3 | 0.00 | 0.00 | 0.00 | 60 | 1019.9 |
| 20260831173518 | 94 | 158 | 0.9 | 3.5 | 0.00 | 0.00 | 0.00 | 59 | 1019.9 |
| 20260831173045 | 93 | 0 | 0.0 | 3.5 | 0.00 | 0.00 | 0.00 | 58 | 1019.9 |
| 20260831172520 | 93 | 0 | 0.0 | 4.3 | 0.00 | 0.00 | 0.00 | 57 | 1020.1 |
| 20260831172020 | 93 | 0 | 1.7 | 4.3 | 0.00 | 0.00 | 0.00 | 55 | 1020.2 |
| 20260831171543 | 94 | 92 | 0.9 | 3.5 | 0.00 | 0.00 | 0.00 | 57 | 1020.2 |
| 20260831171021 | 95 | 0 | 0.9 | 4.3 | 0.00 | 0.00 | 0.00 | 55 | 1020.2 |
| 20260831170522 | 95 | 0 | 0.0 | 4.3 | 0.00 | 0.00 | 0.00 | 60 | 1020.2 |
| 20260831170111 | 94 | 162 | 0.9 | 4.3 | 0.00 | 0.00 | 0.00 | 59 | 1020.3 |
| 20260831165522 | 94 | 86 | 0.9 | 3.5 | 0.00 | 0.00 | 0.00 | 58 | 1020.3 |
| 20260831165022 | 94 | 44 | 0.9 | 4.3 | 0.00 | 0.00 | 0.00 | 56 | 1020.4 |
| 20260831164539 | 95 | 131 | 0.0 | 4.3 | 0.00 | 0.00 | 0.00 | 58 | 1020.4 |
| 20260831164018 | 96 | 14 | 0.9 | 4.3 | 0.00 | 0.00 | 0.00 | 53 | 1020.3 |
| 20260831163518 | 96 | 0 | 0.0 | 3.5 | 0.00 | 0.00 | 0.00 | 58 | 1020.4 |
| 20260831163044 | 96 | 208 | 0.9 | 3.5 | 0.00 | 0.00 | 0.00 | 57 | 1020.5 |
| 20260831162523 | 95 | 0 | 0.0 | 4.3 | 0.00 | 0.00 | 0.00 | 60 | 1020.5 |
| 20260831162020 | 95 | 171 | 0.0 | 4.3 | 0.00 | 0.00 | 0.00 | 57 | 1020.7 |
| 20260831161541 | 95 | 113 | 0.9 | 4.3 | 0.00 | 0.00 | 0.00 | 56 | 1020.8 |
| 20260831161023 | 94 | 0 | 0.9 | 4.3 | 0.00 | 0.00 | 0.00 | 60 | 1020.8 |
| 20260831160522 | 94 | 0 | 0.0 | 7.0 | 0.00 | 0.00 | 0.00 | 58 | 1020.8 |
| 20260831160042 | 93 | 194 | 0.9 | 7.0 | 0.00 | 0.00 | 0.00 | 60 | 1020.9 |
| 20260831155521 | 93 | 269 | 1.7 | 7.0 | 0.00 | 0.00 | 0.00 | 60 | 1020.8 |
| 20260831155021 | 93 | 0 | 0.0 | 4.3 | 0.00 | 0.00 | 0.00 | 61 | 1020.9 |
| 20260831154616 | 92 | 44 | 0.0 | 4.3 | 0.00 | 0.00 | 0.00 | 64 | 1020.9 |
| 20260831154018 | 92 | 0 | 0.9 | 3.5 | 0.00 | 0.00 | 0.00 | 63 | 1020.8 |
| 20260831153520 | 91 | 0 | 0.0 | 3.5 | 0.00 | 0.00 | 0.00 | 65 | 1020.8 |
| 20260831153041 | 91 | 26 | 0.9 | 3.5 | 0.00 | 0.00 | 0.00 | 63 | 1020.8 |
| 20260831152522 | 90 | 105 | 0.0 | 3.5 | 0.00 | 0.00 | 0.00 | 63 | 1020.8 |
| 20260831152024 | 90 | 146 | 0.0 | 3.5 | 0.00 | 0.00 | 0.00 | 63 | 1020.8 |
| 20260831151541 | 91 | 328 | 0.9 | 2.6 | 0.00 | 0.00 | 0.00 | 63 | 1020.7 |
| 20260831151021 | 91 | 194 | 0.0 | 3.5 | 0.00 | 0.00 | 0.00 | 66 | 1020.8 |
| 20260831150520 | 90 | 0 | 0.0 | 3.5 | 0.00 | 0.00 | 0.00 | 66 | 1020.8 |
| 20260831150041 | 90 | 0 | 0.0 | 3.5 | 0.00 | 0.00 | 0.00 | 68 | 1020.7 |
| 20260831145518 | 90 | 0 | 0.0 | 3.5 | 0.00 | 0.00 | 0.00 | 67 | 1020.8 |
| 20260831145020 | 89 | 0 | 0.0 | 2.6 | 0.00 | 0.00 | 0.00 | 67 | 1020.7 |
| 20260831144540 | 89 | 0 | 0.0 | 2.6 | 0.00 | 0.00 | 0.00 | 67 | 1020.8 |
| 20260831144018 | 89 | 0 | 0.0 | 2.6 | 0.00 | 0.00 | 0.00 | 67 | 1020.8 |
| 20260831143517 | 88 | 0 | 0.9 | 2.6 | 0.00 | 0.00 | 0.00 | 70 | 1020.8 |
| 20260831143043 | 88 | 0 | 0.0 | 1.7 | 0.00 | 0.00 | 0.00 | 69 | 1020.9 |
| 20260831142518 | 88 | 0 | 0.0 | 1.7 | 0.00 | 0.00 | 0.00 | 68 | 1020.7 |
| 20260831142024 | 87 | 0 | 0.0 | 1.7 | 0.00 | 0.00 | 0.00 | 71 | 1020.8 |
| 20260831141540 | 87 | 0 | 0.0 | 1.7 | 0.00 | 0.00 | 0.00 | 71 | 1020.8 |
| 20260831141019 | 86 | 0 | 0.0 | 1.7 | 0.00 | 0.00 | 0.00 | 70 | 1020.7 |
| 20260831140519 | 86 | 0 | 0.0 | 2.6 | 0.00 | 0.00 | 0.00 | 71 | 1020.8 |
| 20260831140041 | 85 | 0 | 0.0 | 2.6 | 0.00 | 0.00 | 0.00 | 72 | 1020.8 |
| 20260831135520 | 85 | 0 | 0.0 | 1.7 | 0.00 | 0.00 | 0.00 | 72 | 1020.9 |
| 20260831135018 | 84 | 43 | 0.0 | 1.7 | 0.00 | 0.00 | 0.00 | 73 | 1021.0 |
| 20260831134539 | 84 | 0 | 0.0 | 1.7 | 0.00 | 0.00 | 0.00 | 73 | 1020.9 |
| 20260831134019 | 83 | 0 | 0.0 | 2.6 | 0.00 | 0.00 | 0.00 | 74 | 1020.9 |
| 20260831133520 | 82 | 0 | 0.0 | 2.6 | 0.00 | 0.00 | 0.00 | 74 | 1021.0 |
| 20260831133041 | 82 | 0 | 0.0 | 2.6 | 0.00 | 0.00 | 0.00 | 73 | 1020.9 |
| 20260831132518 | 81 | 0 | 0.0 | 1.7 | 0.00 | 0.00 | 0.00 | 72 | 1020.9 |
| 20260831132020 | 80 | 0 | 0.0 | 1.7 | 0.00 | 0.00 | 0.00 | 70 | 1020.9 |
| 20260831131542 | 79 | 0 | 0.0 | 1.7 | 0.00 | 0.00 | 0.00 | 67 | 1020.8 |
| 20260831131021 | 78 | 0 | 0.0 | 1.7 | 0.00 | 0.00 | 0.00 | 65 | 1020.7 |
| 20260831130519 | 78 | 0 | 0.0 | 0.9 | 0.00 | 0.00 | 0.00 | 63 | 1020.7 |
| 20260831130044 | 78 | 0 | 0.0 | 0.9 | 0.00 | 0.00 | 0.00 | 61 | 1020.8 |
| 20260831125518 | 77 | 0 | 0.0 | 0.9 | 0.00 | 0.00 | 0.00 | 57 | 1020.6 |
| 20260831125021 | 77 | 0 | 0.0 | 2.6 | 0.00 | 0.00 | 0.00 | 56 | 1020.4 |
| 20260831124542 | 77 | 0 | 0.0 | 2.6 | 0.00 | 0.00 | 0.00 | 52 | 1020.3 |
| 20260831124025 | 77 | 0 | 0.0 | 2.6 | 0.00 | 0.00 | 0.00 | 50 | 1020.4 |
| 20260831123520 | 76 | 38 | 0.0 | 1.7 | 0.00 | 0.00 | 0.00 | 47 | 1020.1 |
| 20260831123045 | 76 | 48 | 0.0 | 0.9 | 0.00 | 0.00 | 0.00 | 43 | 1020.1 |
| 20260831122524 | 76 | 0 | 0.0 | 0.9 | 0.00 | 0.00 | 0.00 | 40 | 1020.0 |
| 20260831122018 | 75 | 0 | 0.0 | 0.9 | 0.00 | 0.00 | 0.00 | 38 | 1019.8 |
| 20260831121540 | 75 | 0 | 0.0 | 0.9 | 0.00 | 0.00 | 0.00 | 39 | 1019.6 |
| 20260831121021 | 75 | 0 | 0.0 | 0.9 | 0.00 | 0.00 | 0.00 | 38 | 1019.7 |
| 20260831120522 | 75 | 0 | 0.0 | 0.9 | 0.00 | 0.00 | 0.00 | 38 | 1019.5 |
| 20260831120042 | 75 | 0 | 0.0 | 0.9 | 0.00 | 0.00 | 0.00 | 40 | 1019.5 |
| 20260831115517 | 75 | 0 | 0.0 | 0.0 | 0.00 | 0.00 | 0.00 | 40 | 1019.5 |
| 20260831115020 | 75 | 0 | 0.0 | 0.0 | 0.00 | 0.00 | 0.00 | 43 | 1019.4 |
| 20260831114544 | 75 | 0 | 0.0 | 0.0 | 0.00 | 0.00 | 0.00 | 43 | 1019.2 |
| 20260831114029 | 75 | 0 | 0.0 | 0.0 | 0.00 | 0.00 | 0.00 | 43 | 1019.2 |
| 20260831113524 | 75 | 0 | 0.0 | 0.0 | 0.00 | 0.00 | 0.00 | 43 | 1019.2 |
| 20260831113051 | 75 | 0 | 0.0 | 0.0 | 0.00 | 0.00 | 0.00 | 44 | 1019.2 |
| 20260831112522 | 75 | 0 | 0.0 | 0.0 | 0.00 | 0.00 | 0.00 | 46 | 1019.2 |
| 20260831112018 | 75 | 0 | 0.0 | 0.0 | 0.00 | 0.00 | 0.00 | 47 | 1019.2 |
| 20260831111541 | 75 | 0 | 0.0 | 0.0 | 0.00 | 0.00 | 0.00 | 49 | 1019.1 |
| 20260831111020 | 75 | 0 | 0.0 | 0.0 | 0.00 | 0.00 | 0.00 | 50 | 1018.9 |
| 20260831110520 | 75 | 0 | 0.0 | 0.0 | 0.00 | 0.00 | 0.00 | 50 | 1018.9 |
| 20260831110039 | 76 | 0 | 0.0 | 0.0 | 0.00 | 0.00 | 0.00 | 50 | 1018.9 |
| 20260831105525 | 76 | 0 | 0.0 | 0.0 | 0.00 | 0.00 | 0.00 | 52 | 1019.1 |
| 20260831105022 | 76 | 0 | 0.0 | 0.0 | 0.00 | 0.00 | 0.00 | 52 | 1018.9 |
| 20260831104545 | 76 | 0 | 0.0 | 0.0 | 0.00 | 0.00 | 0.00 | 52 | 1018.7 |
| 20260831104021 | 76 | 0 | 0.0 | 0.0 | 0.00 | 0.00 | 0.00 | 53 | 1018.8 |
| 20260831103517 | 76 | 0 | 0.0 | 0.9 | 0.00 | 0.00 | 0.00 | 54 | 1018.8 |
| 20260831103056 | 76 | 0 | 0.0 | 0.9 | 0.00 | 0.00 | 0.00 | 53 | 1018.8 |
| 20260831102523 | 76 | 0 | 0.0 | 0.9 | 0.00 | 0.00 | 0.00 | 53 | 1018.7 |
| 20260831102025 | 76 | 0 | 0.0 | 0.9 | 0.00 | 0.00 | 0.00 | 53 | 1018.7 |
| 20260831101541 | 76 | 0 | 0.0 | 0.0 | 0.00 | 0.00 | 0.00 | 52 | 1018.7 |
| 20260831101024 | 76 | 0 | 0.0 | 0.0 | 0.00 | 0.00 | 0.00 | 53 | 1018.6 |
| 20260831100518 | 76 | 0 | 0.0 | 0.0 | 0.00 | 0.00 | 0.00 | 54 | 1018.7 |
| 20260831100043 | 76 | 0 | 0.0 | 0.0 | 0.00 | 0.00 | 0.00 | 54 | 1018.5 |
| 20260831095522 | 76 | 0 | 0.0 | 0.0 | 0.00 | 0.00 | 0.00 | 54 | 1018.5 |
| 20260831095022 | 76 | 0 | 0.0 | 0.0 | 0.00 | 0.00 | 0.00 | 54 | 1018.4 |
| 20260831094541 | 76 | 0 | 0.0 | 0.0 | 0.00 | 0.00 | 0.00 | 55 | 1018.5 |
| 20260831094018 | 76 | 0 | 0.0 | 0.0 | 0.00 | 0.00 | 0.00 | 55 | 1018.5 |
| 20260831093520 | 76 | 0 | 0.0 | 0.0 | 0.00 | 0.00 | 0.00 | 54 | 1018.3 |
| 20260831093048 | 76 | 0 | 0.0 | 0.9 | 0.00 | 0.00 | 0.00 | 54 | 1018.5 |
| 20260831092519 | 76 | 0 | 0.0 | 0.9 | 0.00 | 0.00 | 0.00 | 54 | 1018.6 |
| 20260831092022 | 76 | 0 | 0.0 | 0.0 | 0.00 | 0.00 | 0.00 | 54 | 1018.4 |
| 20260831091543 | 76 | 0 | 0.0 | 0.0 | 0.00 | 0.00 | 0.00 | 55 | 1018.4 |
| 20260831091021 | 76 | 0 | 0.0 | 0.0 | 0.00 | 0.00 | 0.00 | 56 | 1018.3 |
| 20260831090521 | 76 | 0 | 0.0 | 0.0 | 0.00 | 0.00 | 0.00 | 58 | 1018.2 |
| 20260831090055 | 76 | 0 | 0.0 | 0.0 | 0.00 | 0.00 | 0.00 | 57 | 1018.2 |
| 20260831085521 | 76 | 0 | 0.0 | 0.0 | 0.00 | 0.00 | 0.00 | 58 | 1018.2 |
| 20260831085024 | 76 | 0 | 0.0 | 0.0 | 0.00 | 0.00 | 0.00 | 58 | 1018.2 |
| 20260831084545 | 76 | 0 | 0.0 | 0.0 | 0.00 | 0.00 | 0.00 | 58 | 1018.3 |
| 20260831084025 | 76 | 0 | 0.0 | 0.0 | 0.00 | 0.00 | 0.00 | 59 | 1018.1 |
| 20260831083525 | 76 | 0 | 0.0 | 0.0 | 0.00 | 0.00 | 0.00 | 61 | 1018.1 |
| 20260831083045 | 76 | 0 | 0.0 | 0.0 | 0.00 | 0.00 | 0.00 | 61 | 1018.0 |
| 20260831082521 | 76 | 0 | 0.0 | 0.0 | 0.00 | 0.00 | 0.00 | 61 | 1018.0 |
| 20260831082021 | 77 | 0 | 0.0 | 0.0 | 0.00 | 0.00 | 0.00 | 61 | 1017.9 |
| 20260831081541 | 77 | 0 | 0.0 | 0.0 | 0.00 | 0.00 | 0.00 | 63 | 1017.9 |
| 20260831081021 | 77 | 0 | 0.0 | 0.0 | 0.00 | 0.00 | 0.00 | 62 | 1017.8 |
| 20260831080521 | 77 | 0 | 0.0 | 0.0 | 0.00 | 0.00 | 0.00 | 61 | 1017.9 |
| 20260831080055 | 77 | 0 | 0.0 | 0.0 | 0.00 | 0.00 | 0.00 | 61 | 1017.9 |
| 20260831075520 | 77 | 0 | 0.0 | 0.0 | 0.00 | 0.00 | 0.00 | 61 | 1017.9 |
| 20260831075017 | 77 | 0 | 0.0 | 0.0 | 0.00 | 0.00 | 0.00 | 63 | 1018.0 |
| 20260831074542 | 77 | 0 | 0.0 | 0.0 | 0.00 | 0.00 | 0.00 | 62 | 1018.1 |
| 20260831074024 | 77 | 0 | 0.0 | 0.0 | 0.00 | 0.00 | 0.00 | 63 | 1018.0 |
| 20260831073524 | 77 | 0 | 0.0 | 0.0 | 0.00 | 0.00 | 0.00 | 64 | 1018.1 |
| 20260831073045 | 77 | 0 | 0.0 | 0.0 | 0.00 | 0.00 | 0.00 | 64 | 1018.0 |
| 20260831072520 | 77 | 0 | 0.0 | 0.0 | 0.00 | 0.00 | 0.00 | 63 | 1018.0 |
| 20260831072025 | 77 | 0 | 0.0 | 0.0 | 0.00 | 0.00 | 0.00 | 64 | 1018.0 |
| 20260831071542 | 77 | 0 | 0.0 | 0.0 | 0.00 | 0.00 | 0.00 | 64 | 1017.9 |
| 20260831071018 | 77 | 0 | 0.0 | 0.0 | 0.00 | 0.00 | 0.00 | 63 | 1018.0 |
| 20260831070520 | 77 | 0 | 0.0 | 0.0 | 0.00 | 0.00 | 0.00 | 65 | 1017.9 |
| 20260831070047 | 77 | 0 | 0.0 | 0.0 | 0.00 | 0.00 | 0.00 | 66 | 1017.8 |
| 20260831065519 | 77 | 0 | 0.0 | 0.0 | 0.00 | 0.00 | 0.00 | 66 | 1017.9 |
| 20260831065025 | 77 | 0 | 0.0 | 0.0 | 0.00 | 0.00 | 0.00 | 67 | 1017.9 |
| 20260831064545 | 77 | 0 | 0.0 | 0.0 | 0.00 | 0.00 | 0.00 | 68 | 1017.8 |
| 20260831064022 | 77 | 0 | 0.0 | 0.0 | 0.00 | 0.00 | 0.00 | 69 | 1017.9 |
| 20260831063521 | 78 | 0 | 0.0 | 0.0 | 0.00 | 0.00 | 0.00 | 69 | 1018.0 |
| 20260831063042 | 78 | 0 | 0.0 | 0.0 | 0.00 | 0.00 | 0.00 | 69 | 1018.1 |
| 20260831062524 | 78 | 0 | 0.0 | 0.0 | 0.00 | 0.00 | 0.00 | 70 | 1018.0 |
| 20260831062022 | 78 | 0 | 0.0 | 0.0 | 0.00 | 0.00 | 0.00 | 71 | 1018.1 |
| 20260831061542 | 78 | 0 | 0.0 | 0.0 | 0.00 | 0.00 | 0.00 | 71 | 1018.1 |
| 20260831061024 | 78 | 0 | 0.0 | 0.0 | 0.00 | 0.00 | 0.00 | 72 | 1018.1 |
| 20260831060521 | 78 | 0 | 0.0 | 0.0 | 0.00 | 0.00 | 0.00 | 72 | 1018.2 |
| 20260831060044 | 78 | 0 | 0.0 | 0.0 | 0.00 | 0.00 | 0.00 | 72 | 1018.2 |
| 20260831055522 | 78 | 0 | 0.0 | 0.0 | 0.00 | 0.00 | 0.00 | 72 | 1018.3 |
| 20260831055022 | 79 | 0 | 0.0 | 0.0 | 0.00 | 0.00 | 0.00 | 73 | 1018.3 |
| 20260831054543 | 79 | 0 | 0.0 | 0.0 | 0.00 | 0.00 | 0.00 | 73 | 1018.2 |
| 20260831054022 | 79 | 0 | 0.0 | 0.0 | 0.00 | 0.00 | 0.00 | 73 | 1018.1 |
| 20260831053521 | 79 | 0 | 0.0 | 0.0 | 0.00 | 0.00 | 0.00 | 74 | 1018.3 |
| 20260831053042 | 79 | 0 | 0.0 | 0.0 | 0.00 | 0.00 | 0.00 | 74 | 1018.4 |
| 20260831052520 | 79 | 0 | 0.0 | 0.0 | 0.00 | 0.00 | 0.00 | 74 | 1018.3 |
| 20260831052025 | 79 | 0 | 0.0 | 0.0 | 0.00 | 0.00 | 0.00 | 74 | 1018.4 |
| 20260831051546 | 79 | 0 | 0.0 | 0.0 | 0.00 | 0.00 | 0.00 | 74 | 1018.2 |
| 20260831051023 | 79 | 0 | 0.0 | 0.0 | 0.00 | 0.00 | 0.00 | 74 | 1018.2 |
| 20260831050522 | 80 | 0 | 0.0 | 0.0 | 0.00 | 0.00 | 0.00 | 74 | 1018.1 |
| 20260831050045 | 80 | 0 | 0.0 | 0.0 | 0.00 | 0.00 | 0.00 | 74 | 1018.2 |
| 20260831045518 | 80 | 0 | 0.0 | 0.0 | 0.00 | 0.00 | 0.00 | 74 | 1018.2 |
| 20260831045021 | 80 | 0 | 0.0 | 0.0 | 0.00 | 0.00 | 0.00 | 74 | 1018.1 |
| 20260831044541 | 80 | 0 | 0.0 | 0.0 | 0.00 | 0.00 | 0.00 | 74 | 1018.0 |
| 20260831044020 | 80 | 0 | 0.0 | 0.0 | 0.00 | 0.00 | 0.00 | 74 | 1018.1 |
| 20260831043519 | 80 | 0 | 0.0 | 0.0 | 0.00 | 0.00 | 0.00 | 74 | 1018.1 |
| 20260831043042 | 80 | 0 | 0.0 | 0.0 | 0.00 | 0.00 | 0.00 | 74 | 1018.1 |
| 20260831042523 | 81 | 0 | 0.0 | 0.0 | 0.00 | 0.00 | 0.00 | 74 | 1018.1 |
| 20260831042024 | 81 | 0 | 0.0 | 0.0 | 0.00 | 0.00 | 0.00 | 74 | 1018.2 |
| 20260831041600 | 81 | 0 | 0.0 | 0.0 | 0.00 | 0.00 | 0.00 | 74 | 1018.2 |
| 20260831041024 | 81 | 0 | 0.0 | 0.0 | 0.00 | 0.00 | 0.00 | 74 | 1018.2 |
| 20260831040521 | 81 | 0 | 0.0 | 0.0 | 0.00 | 0.00 | 0.00 | 74 | 1018.1 |
| 20260831040044 | 81 | 0 | 0.0 | 0.0 | 0.00 | 0.00 | 0.00 | 74 | 1018.2 |
| 20260831035518 | 81 | 0 | 0.0 | 0.0 | 0.00 | 0.00 | 0.00 | 74 | 1018.1 |
| 20260831035018 | 82 | 0 | 0.0 | 0.0 | 0.00 | 0.00 | 0.00 | 74 | 1018.3 |
| 20260831034542 | 82 | 0 | 0.0 | 1.7 | 0.00 | 0.00 | 0.00 | 74 | 1018.3 |
| 20260831034021 | 82 | 0 | 0.0 | 1.7 | 0.00 | 0.00 | 0.00 | 73 | 1018.3 |
| 20260831033520 | 82 | 0 | 0.0 | 1.7 | 0.00 | 0.00 | 0.00 | 73 | 1018.4 |
| 20260831033043 | 82 | 0 | 0.0 | 3.5 | 0.00 | 0.00 | 0.00 | 73 | 1018.2 |
| 20260831032522 | 82 | 0 | 0.0 | 3.5 | 0.00 | 0.00 | 0.00 | 73 | 1018.3 |
| 20260831032020 | 82 | 0 | 0.0 | 0.9 | 0.00 | 0.00 | 0.00 | 73 | 1018.4 |
| 20260831031544 | 82 | 0 | 0.0 | 0.0 | 0.00 | 0.00 | 0.00 | 72 | 1018.3 |
| 20260831031018 | 83 | 0 | 0.0 | 0.9 | 0.00 | 0.00 | 0.00 | 72 | 1018.3 |
| 20260831030517 | 83 | 0 | 0.0 | 0.9 | 0.00 | 0.00 | 0.00 | 72 | 1018.4 |
| 20260831030044 | 83 | 0 | 0.0 | 0.9 | 0.00 | 0.00 | 0.00 | 72 | 1018.4 |
| 20260831025520 | 83 | 0 | 0.0 | 0.9 | 0.00 | 0.00 | 0.00 | 72 | 1018.4 |
| 20260831025022 | 83 | 0 | 0.0 | 0.9 | 0.00 | 0.00 | 0.00 | 71 | 1018.2 |
| 20260831024552 | 83 | 0 | 0.0 | 0.9 | 0.00 | 0.00 | 0.00 | 71 | 1018.2 |
| 20260831024024 | 83 | 0 | 0.0 | 0.0 | 0.00 | 0.00 | 0.00 | 71 | 1018.2 |
| 20260831023521 | 84 | 0 | 0.0 | 0.9 | 0.00 | 0.00 | 0.00 | 71 | 1018.1 |
| 20260831023042 | 84 | 0 | 0.0 | 0.9 | 0.00 | 0.00 | 0.00 | 70 | 1018.1 |
| 20260831022525 | 84 | 0 | 0.0 | 0.0 | 0.00 | 0.00 | 0.00 | 70 | 1018.2 |
| 20260831022019 | 84 | 0 | 0.0 | 0.0 | 0.00 | 0.00 | 0.00 | 70 | 1018.1 |
| 20260831021545 | 84 | 0 | 0.0 | 0.0 | 0.00 | 0.00 | 0.00 | 69 | 1018.1 |
| 20260831021018 | 85 | 0 | 0.0 | 0.0 | 0.00 | 0.00 | 0.00 | 68 | 1018.0 |
| 20260831020520 | 85 | 0 | 0.0 | 0.0 | 0.00 | 0.00 | 0.00 | 68 | 1017.8 |
| 20260831020041 | 85 | 0 | 0.0 | 0.0 | 0.00 | 0.00 | 0.00 | 68 | 1018.0 |
| 20260831015518 | 85 | 0 | 0.0 | 0.0 | 0.00 | 0.00 | 0.00 | 67 | 1018.0 |
| 20260831015021 | 85 | 0 | 0.0 | 0.0 | 0.00 | 0.00 | 0.00 | 67 | 1017.9 |
| 20260831014542 | 86 | 0 | 0.0 | 1.7 | 0.00 | 0.00 | 0.00 | 66 | 1018.0 |
| 20260831014022 | 86 | 0 | 0.0 | 1.7 | 0.00 | 0.00 | 0.00 | 66 | 1017.9 |
| 20260831013521 | 86 | 0 | 0.0 | 0.0 | 0.00 | 0.00 | 0.00 | 66 | 1017.9 |
| 20260831013041 | 86 | 0 | 0.0 | 0.9 | 0.00 | 0.00 | 0.00 | 65 | 1017.9 |
| 20260831012520 | 86 | 0 | 0.0 | 1.7 | 0.00 | 0.00 | 0.00 | 65 | 1017.6 |